This demonstration page uses our WeatherBlox Daily Observations layout. Learn more.

Left ArrowRight Arrow

Hourly Observations for January 4, 2018

Temp ( °F °C ) Dew Point ( °F °C ) Humidity (%) Winds ( mph kmh ) Pressure ( in mb ) Visibility ( mi km ) Precip ( " mm )
12:53 am 00:53 Clear 26 -3.3 9 -12.8 48 48 ENE 6 9 30.26 1025 10 16 0.00 0.00
1:53 am 01:53 Clear 24 -4.4 10 -12.2 55 55 Calm 30.24 1024 10 16 0.00 0.00
2:53 am 02:53 Clear 20 -6.7 9 -12.8 62 62 N 6 9 30.23 1024 10 16 0.00 0.00
3:53 am 03:53 Clear 22 -5.6 9 -12.8 57 57 N 3 6 30.20 1023 10 16 0.00 0.00
4:53 am 04:53 Clear 22 -5.6 10 -12.2 60 60 NNE 3 6 30.19 1022 10 16 0.00 0.00
5:53 am 05:53 Clear 24 -4.4 11 -11.7 57 57 NNE 5 7 30.20 1023 10 16 0.00 0.00
6:53 am 06:53 Clear 27 -2.8 12 -11.1 53 53 Calm 30.21 1023 10 16 0.00 0.00
7:53 am 07:53 Clear 27 -2.8 13 -10.6 55 55 N 3 6 30.22 1023 10 16 0.00 0.00
8:53 am 08:53 Sunny 31 -0.6 14 -10 49 49 Calm 30.22 1023 10 16 0.00 0.00
9:53 am 09:53 Sunny 36 2.2 13 -10.6 39 39 ESE 3 6 30.22 1023 10 16 0.00 0.00
10:53 am 10:53 Sunny 40 4.4 14 -10 35 35 ESE 3 6 30.23 1024 10 16 0.00 0.00
11:53 am 11:53 Sunny 43 6.1 13 -10.6 29 29 SE 7 11 30.21 1023 10 16 0.00 0.00
12:53 pm 12:53 Partly Cloudy 46 7.8 12 -11.1 25 25 E 5 7 30.18 1022 10 16 0.00 0.00
1:53 pm 13:53 Mostly Cloudy 48 8.9 11 -11.7 22 22 ESE 5 7 30.16 1021 10 16 0.00 0.00
2:53 pm 14:53 Mostly Cloudy 49 9.4 11 -11.7 21 21 SE 7 11 30.15 1021 10 16 0.00 0.00
3:53 pm 15:53 Cloudy 51 10.6 12 -11.1 21 21 SE 8 13 30.14 1021 10 16 0.00 0.00
4:53 pm 16:53 Cloudy 50 10 17 -8.3 27 27 SSE 5 7 30.14 1021 10 16 0.00 0.00
5:53 pm 17:53 Cloudy 48 8.9 21 -6.1 34 34 SE 7 11 30.14 1021 10 16 0.00 0.00
6:53 pm 18:53 Cloudy 47 8.3 20 -6.7 34 34 SSE 7 11 30.16 1021 10 16 0.00 0.00
7:53 pm 19:53 Cloudy 45 7.2 23 -5 42 42 ESE 7 11 30.18 1022 10 16 0.00 0.00
8:53 pm 20:53 Cloudy 45 7.2 20 -6.7 37 37 SE 8 13 30.17 1022 10 16 0.00 0.00
9:53 pm 21:53 Clear 43 6.1 20 -6.7 40 40 ENE 6 9 30.19 1022 10 16 0.00 0.00
10:53 pm 22:53 Clear 43 6.1 20 -6.7 40 40 SE 6 9 30.18 1022 10 16 0.00 0.00
11:53 pm 23:53 Clear 39 3.9 20 -6.7 46 46 E 5 7 30.19 1023 10 16 0.00 0.00

Powered by AerisWeather